{"data":{"norad_id":53038,"intl_designator":"2022-076BE","name":"STARLINK-4156","alt_names":[],"object_type":"PAYLOAD","status":"ACTIVE","operator":null,"country":"US","launch_date":"2022-07-07","launch_site_code":"AFETR","launch_vehicle":null,"mission":null,"orbit_class":"UNKNOWN","rcs_meters":null,"size_class":null,"mass_kg":null,"dimensions":null,"purposes":["comms"],"wikipedia_slug":null,"has_3d_model":false,"image_url":null,"decayed_at":null,"tle_current":{"epoch":"2026-09-19T15:50:50.904960Z","epoch_age_seconds":142017,"freshness":"FRESH","line1":"1 53038U 22076BE  26262.66031140  .00003852  00000+0  12518-3 0  9992","line2":"2 53038  53.1597 277.4792 0001399 106.4646 253.6510 15.34372485232481","mean_motion":15.34372485,"eccentricity":0.0001399,"inclination_deg":53.1597,"raan_deg":277.4792,"arg_perigee_deg":106.4646,"mean_anomaly_deg":253.651,"bstar":0.00012518,"rev_number":23248,"period_min":93.849440998025,"perigee_km":461.82797681688,"apogee_km":463.74206679858,"semimajor_km":6840.9220218077,"source":"CELESTRAK","updated_at":"2026-09-20T09:00:40.149526Z"}}}